Track OPTUS B1 (AUSSAT B1) now! OPTUS B1 (AUSSAT B1) is classified as:
1 22087U 92054A 24348.51217247 -.00000219 00000-0 00000+0 0 9991 2 22087 12.2144 28.0411 0008401 135.7706 47.3753 0.99204797129236